This demonstration page uses our WeatherBlox Daily Observations layout. Learn more.

Left ArrowRight Arrow

41.12389, -100.76542

Hourly Observations for July 26, 2015

Temp ( °F °C ) Dew Point ( °F °C ) Humidity (%) Winds ( mph kmh ) Pressure ( in mb ) Visibility ( mi km ) Precip ( " mm )
12:53 am 00:53 Clear 68 20 66 18.9 93 93 Calm 29.86 1011 10 16 0.00 0.00
1:53 am 01:53 Clear 67 19.4 65 18.3 93 93 Calm 29.86 1011 10 16 0.00 0.00
2:53 am 02:53 Clear 69 20.6 66 18.9 90 90 SSW 6 9 29.86 1011 10 16 0.00 0.00
3:53 am 03:53 Clear 65 18.3 63 17.2 93 93 W 5 7 29.85 1011 9 14 0.00 0.00
4:11 am 04:11 Partly Cloudy 66 19 64 18 94 94 Calm 29.83 1010 10 16 0.00 0.00
4:20 am 04:20 Mostly Cloudy 70 21 66 19 88 88 WSW 5 7 29.83 1010 10 16 0.00 0.00
4:53 am 04:53 Cloudy 70 21.1 68 20 93 93 N 3 6 29.85 1011 10 16 0.00 0.00
5:12 am 05:12 Cloudy 70 21 68 20 94 94 W 5 7 29.83 1010 10 16 0.00 0.00
5:53 am 05:53 Mostly Cloudy 69 20.6 67 19.4 93 93 W 3 6 29.85 1011 9 14 0.00 0.00
6:06 am 06:06 Partly Cloudy with Mist and Fog 67 19.4 66 18.9 97 97 NNW 5 7 29.83 1010 4 6 0.00 0.00
6:20 am 06:20 Mostly Clear with Mist and Fog 66 19 64 18 94 94 NNW 3 6 29.83 1010 2 3 0.00 0.00
6:23 am 06:23 Mostly Cloudy with Mist and Fog 66 19 64 18 94 94 N 3 6 29.83 1010 1 2 0.00 0.00
6:27 am 06:27 Mostly Cloudy with Mist and Fog 66 18.9 65 18.3 96 96 Calm 29.83 1010 1 1 0.00 0.00
6:38 am 06:38 Mostly Cloudy with Fog 64 18 64 18 100 100 Calm 29.85 1011 0 0 0.00 0.00
6:53 am 06:53 Mostly Cloudy with Fog 65 18.3 64 17.8 97 97 ESE 5 7 29.86 1011 0 0 0.00 0.00
7:00 am 07:00 Mostly Cloudy with Mist and Fog 64 17.8 64 17.8 100 100 E 3 6 29.85 1011 1 2 0.00 0.00
7:11 am 07:11 Mostly Cloudy with Mist and Fog 65 18.3 64 17.8 97 97 Calm 29.88 1012 1 2 0.00 0.00
7:17 am 07:17 Mostly Cloudy with Fog 66 18.9 65 18.3 96 96 Calm 29.88 1012 0 0 0.00 0.00
7:35 am 07:35 Mostly Cloudy with Fog 66 18.9 66 18.9 100 100 N 3 6 29.83 1010 0 0 0.00 0.00
7:43 am 07:43 Mostly Cloudy with Fog 66 19 66 19 100 100 Calm 29.83 1010 1 1 0.00 0.00
7:53 am 07:53 Cloudy with Mist and Fog 67 19.4 66 18.9 97 97 Calm 29.86 1011 1 2 0.00 0.00
7:57 am 07:57 Cloudy with Mist and Fog 67 19.4 66 18.9 97 97 Calm 29.83 1010 2 3 0.00 0.00
8:07 am 08:07 Cloudy with Mist and Fog 68 20 67 19.4 96 96 Calm 29.85 1011 3 5 0.00 0.00
8:11 am 08:11 Cloudy with Mist and Fog 68 20 66 18.9 93 93 Calm 29.85 1011 2 3 0.00 0.00
8:19 am 08:19 Mostly Cloudy with Mist and Fog 68 20 67 19.4 96 96 Calm 29.85 1011 1 2 0.00 0.00
8:29 am 08:29 Cloudy with Mist and Fog 68 20 68 20 100 100 Calm 29.83 1010 2 3 0.00 0.00
8:38 am 08:38 Mostly Cloudy 70 21 66 19 88 88 Calm 29.83 1010 9 14 0.00 0.00
8:51 am 08:51 Partly Cloudy 72 22 70 21 94 94 VRB 3 6 29.85 1011 10 16 0.00 0.00
8:53 am 08:53 Partly Cloudy 72 22.2 69 20.6 91 91 Calm 29.87 1012 10 16 0.00 0.00
9:53 am 09:53 Sunny 76 24.4 70 21.1 82 82 Calm 29.88 1012 10 16 0.00 0.00
10:53 am 10:53 Sunny 82 27.8 70 21.1 67 67 Calm 29.87 1011 10 16 0.00 0.00
11:53 am 11:53 Sunny 86 30 71 21.7 61 61 VRB 3 6 29.86 1011 10 16 0.00 0.00
12:53 pm 12:53 Sunny 89 31.7 69 20.6 52 52 ESE 9 15 29.86 1011 10 16 0.00 0.00
1:53 pm 13:53 Sunny 90 32.2 71 21.7 54 54 E 12 19 29.84 1010 10 16 0.00 0.00
2:53 pm 14:53 Sunny 92 33.3 71 21.7 51 51 ESE 14 22 29.82 1010 10 16 0.00 0.00
3:53 pm 15:53 Sunny 92 33.3 71 21.7 51 51 ESE 14 22 29.79 1009 10 16 0.00 0.00
4:53 pm 16:53 Sunny 91 32.8 73 22.8 56 56 ESE 12 19 29.79 1009 10 16 0.00 0.00
5:53 pm 17:53 Sunny 88 31.1 73 22.8 61 61 ESE 9 15 29.78 1009 10 16 0.00 0.00
6:53 pm 18:53 Sunny 86 30 73 22.8 65 65 ESE 5 7 29.79 1009 10 16 0.00 0.00
7:53 pm 19:53 Mostly Cloudy 81 27.2 74 23.3 79 79 NW 5 7 29.83 1010 10 16 0.00 0.00
8:53 pm 20:53 Mostly Cloudy with Light Rain 66 18.9 62 16.7 87 87 WNW 18 30 29.95 1014 10 16 0.09 2.29
9:53 pm 21:53 Mostly Cloudy with Light Rain 68 20 64 17.8 87 87 E 8 13 29.90 1013 10 16 0.09 2.29
10:53 pm 22:53 Mostly Clear 69 20.6 62 16.7 78 78 ESE 16 26 29.84 1010 10 16 0.01 0.25
11:53 pm 23:53 Clear 73 22.8 58 14.4 59 59 SE 6 9 29.79 1009 10 16 0.00 0.00

Powered by AerisWeather